• In Belarus
  • List of Countries
  • For 7 days
  • Water Temperature
  • Satellite Maps
  • Weather Map
  • Weather Widgets
  • user-avatar
    Login

    Hourly Weather Tegu

    Today, 20 August, Monday

    Time Temperature Precipitation Wind Pressure Humidity
    00:00 +23°C° 0 mm 1 mps 753 mmHg 85%
    01:00 +23°C° 0 mm 1 mps 752 mmHg 86%
    02:00 +21°C° 0 mm 0 mps 752 mmHg 88%
    03:00 +21°C° 0 mm 0 mps 752 mmHg 89%
    04:00 +20°C° 0 mm 0 mps 752 mmHg 89%
    05:00 +20°C° 0 mm 0 mps 752 mmHg 90%
    06:00 +20°C° 0 mm 0 mps 752 mmHg 90%
    07:00 +22°C° 0 mm 0 mps 752 mmHg 81%
    08:00 +25°C° 0 mm 0 mps 752 mmHg 73%
    09:00 +27°C° 0 mm 0 mps 752 mmHg 64%
    10:00 +31°C° 0 mm 1 mps 751 mmHg 59%
    11:00 +32°C° 0 mm 1 mps 751 mmHg 54%
    12:00 +34°C° 0 mm 1 mps 750 mmHg 49%
    13:00 +35°C° 0 mm 2 mps 750 mmHg 48%
    14:00 +35°C° 0 mm 2 mps 750 mmHg 48%
    15:00 +35°C° 0 mm 3 mps 749 mmHg 48%
    16:00 +34°C° 0 mm 3 mps 749 mmHg 54%
    17:00 +32°C° 0 mm 2 mps 748 mmHg 60%
    18:00 +31°C° 0 mm 2 mps 748 mmHg 66%
    19:00 +29°C° 0 mm 2 mps 748 mmHg 71%
    20:00 +28°C° 0 mm 2 mps 748 mmHg 77%
    21:00 +26°C° 0 mm 1 mps 748 mmHg 83%
    22:00 +25°C° 0 mm 1 mps 748 mmHg 85%
    23:00 +25°C° 0 mm 1 mps 748 mmHg 87%

    Tomorrow, 21 August, Tuesday

    Time Temperature Precipitation Wind Pressure Humidity
    00:00 +24°C° 0 mm 1 mps 749 mmHg 89%
    01:00 +24°C° 0 mm 1 mps 748 mmHg 90%
    02:00 +23°C° 0 mm 1 mps 748 mmHg 91%
    03:00 +23°C° 0 mm 1 mps 748 mmHg 92%
    04:00 +23°C° 0 mm 1 mps 748 mmHg 92%
    05:00 +23°C° 0 mm 1 mps 748 mmHg 92%
    06:00 +21°C° 0 mm 0 mps 748 mmHg 92%
    07:00 +25°C° 0 mm 1 mps 748 mmHg 83%
    08:00 +28°C° 0 mm 1 mps 748 mmHg 74%
    09:00 +30°C° 0 mm 1 mps 748 mmHg 65%
    10:00 +32°C° 0 mm 2 mps 748 mmHg 60%
    11:00 +35°C° 0 mm 2 mps 748 mmHg 54%
    12:00 +36°C° 0 mm 3 mps 748 mmHg 48%
    13:00 +37°C° 0 mm 3 mps 748 mmHg 47%
    14:00 +37°C° 0 mm 3 mps 747 mmHg 46%
    15:00 +38°C° 0 mm 3 mps 747 mmHg 45%
    16:00 +37°C° 0 mm 3 mps 747 mmHg 50%
    17:00 +36°C° 0 mm 2 mps 747 mmHg 55%
    18:00 +35°C° 0 mm 2 mps 747 mmHg 61%
    19:00 +32°C° 0 mm 2 mps 747 mmHg 67%
    20:00 +30°C° 0 mm 1 mps 747 mmHg 73%
    21:00 +29°C° 0 mm 1 mps 747 mmHg 79%
    22:00 +28°C° 0 mm 1 mps 748 mmHg 82%
    23:00 +28°C° 0 mm 1 mps 748 mmHg 84%

    Day after tomorrow, 22 August, Wednesday

    Time Temperature Precipitation Wind Pressure Humidity
    00:00 +27°C° 0 mm 1 mps 748 mmHg 87%
    01:00 +27°C° 0 mm 1 mps 748 mmHg 89%
    02:00 +27°C° 0 mm 1 mps 748 mmHg 91%
    03:00 +26°C° 0 mm 1 mps 747 mmHg 93%
    04:00 +26°C° 0 mm 1 mps 747 mmHg 94%
    05:00 +26°C° 0 mm 1 mps 747 mmHg 95%
    06:00 +26°C° 0 mm 1 mps 747 mmHg 95%
    07:00 +28°C° 0 mm 1 mps 748 mmHg 88%
    08:00 +30°C° 0 mm 2 mps 748 mmHg 81%
    09:00 +31°C° 0 mm 3 mps 748 mmHg 74%
    10:00 +33°C° 0 mm 3 mps 748 mmHg 70%
    11:00 +34°C° 0 mm 4 mps 748 mmHg 67%
    12:00 +35°C° 0 mm 4 mps 748 mmHg 64%
    13:00 +35°C° 0.3 mm 5 mps 748 mmHg 64%
    14:00 +35°C° 0.3 mm 5 mps 748 mmHg 64%
    15:00 +35°C° 0.3 mm 5 mps 748 mmHg 64%
    16:00 +34°C° 0 mm 5 mps 748 mmHg 67%
    17:00 +33°C° 0 mm 4 mps 747 mmHg 70%
    18:00 +32°C° 0 mm 4 mps 747 mmHg 74%
    19:00 +30°C° 0.1 mm 4 mps 748 mmHg 76%
    20:00 +30°C° 0.1 mm 4 mps 748 mmHg 78%
    21:00 +29°C° 0.1 mm 4 mps 748 mmHg 80%
    22:00 +29°C° 0.2 mm 4 mps 747 mmHg 80%
    23:00 +29°C° 0.2 mm 5 mps 747 mmHg 80%

    23 August, Thursday

    Time Temperature Precipitation Wind Pressure Humidity
    00:00 +29°C° 0.2 mm 5 mps 747 mmHg 80%
    01:00 +29°C° 0.3 mm 5 mps 746 mmHg 80%
    02:00 +29°C° 0.3 mm 6 mps 746 mmHg 81%
    03:00 +29°C° 0.3 mm 6 mps 745 mmHg 82%
    04:00 +28°C° 0.6 mm 6 mps 745 mmHg 83%
    05:00 +28°C° 0.6 mm 6 mps 744 mmHg 85%
    06:00 +28°C° 0.6 mm 7 mps 743 mmHg 87%
    07:00 +28°C° 0.6 mm 7 mps 742 mmHg 86%
    08:00 +29°C° 0.6 mm 8 mps 741 mmHg 86%
    09:00 +29°C° 0.6 mm 8 mps 741 mmHg 86%
    10:00 +29°C° 0.8 mm 8 mps 740 mmHg 84%
    11:00 +31°C° 0.8 mm 9 mps 738 mmHg 83%
    12:00 +31°C° 0.8 mm 9 mps 737 mmHg 82%
    13:00 +31°C° 1.1 mm 9 mps 736 mmHg 80%
    14:00 +32°C° 1.1 mm 10 mps 735 mmHg 78%
    15:00 +32°C° 1.1 mm 10 mps 734 mmHg 77%
    16:00 +31°C° 0.8 mm 8 mps 734 mmHg 80%
    17:00 +30°C° 0.8 mm 7 mps 734 mmHg 83%
    18:00 +29°C° 0.8 mm 6 mps 734 mmHg 87%
    19:00 +29°C° 0.2 mm 5 mps 735 mmHg 88%
    20:00 +28°C° 0.2 mm 4 mps 735 mmHg 88%
    21:00 +28°C° 0.2 mm 4 mps 736 mmHg 89%
    22:00 +28°C° 0.1 mm 3 mps 737 mmHg 90%
    23:00 +27°C° 0.1 mm 3 mps 738 mmHg 91%

    24 August, Friday

    Time Temperature Precipitation Wind Pressure Humidity
    00:00 +27°C° 0.1 mm 3 mps 738 mmHg 91%
    01:00 +27°C° 0 mm 3 mps 738 mmHg 91%
    02:00 +27°C° 0 mm 3 mps 739 mmHg 90%
    03:00 +27°C° 0 mm 3 mps 739 mmHg 89%
    04:00 +27°C° 0 mm 3 mps 739 mmHg 89%
    05:00 +26°C° 0 mm 3 mps 740 mmHg 89%
    06:00 +26°C° 0 mm 3 mps 740 mmHg 89%
    07:00 +27°C° 0 mm 4 mps 741 mmHg 84%
    08:00 +28°C° 0 mm 4 mps 742 mmHg 79%
    09:00 +29°C° 0 mm 5 mps 743 mmHg 74%
    10:00 +32°C° 0 mm 5 mps 743 mmHg 67%
    11:00 +33°C° 0 mm 5 mps 743 mmHg 60%
    12:00 +34°C° 0 mm 5 mps 743 mmHg 54%
    13:00 +35°C° 0 mm 5 mps 743 mmHg 52%
    14:00 +35°C° 0 mm 5 mps 743 mmHg 50%
    15:00 +36°C° 0 mm 5 mps 743 mmHg 48%
    16:00 +34°C° 0 mm 4 mps 744 mmHg 53%
    17:00 +33°C° 0 mm 4 mps 744 mmHg 58%
    18:00 +31°C° 0 mm 3 mps 744 mmHg 63%
    19:00 +29°C° 0 mm 2 mps 745 mmHg 69%
    20:00 +28°C° 0 mm 2 mps 746 mmHg 75%
    21:00 +26°C° 0 mm 1 mps 747 mmHg 81%
    22:00 +26°C° 0 mm 1 mps 747 mmHg 84%
    23:00 +25°C° 0 mm 1 mps 747 mmHg 86%

    25 August, Saturday

    Time Temperature Precipitation Wind Pressure Humidity
    00:00 +24°C° 0 mm 1 mps 747 mmHg 89%
    01:00 +24°C° 0 mm 1 mps 747 mmHg 90%
    02:00 +23°C° 0 mm 1 mps 747 mmHg 91%
    03:00 +23°C° 0 mm 1 mps 747 mmHg 93%
    04:00 +23°C° 0 mm 1 mps 747 mmHg 93%
    05:00 +22°C° 0 mm 1 mps 747 mmHg 93%
    06:00 +22°C° 0 mm 1 mps 748 mmHg 94%
    07:00 +24°C° 0 mm 1 mps 748 mmHg 85%
    08:00 +26°C° 0 mm 1 mps 748 mmHg 77%
    09:00 +28°C° 0 mm 1 mps 749 mmHg 68%
    10:00 +30°C° 0 mm 1 mps 749 mmHg 60%
    11:00 +32°C° 0 mm 1 mps 748 mmHg 52%
    12:00 +34°C° 0 mm 1 mps 748 mmHg 44%
    13:00 +35°C° 0 mm 1 mps 748 mmHg 42%
    14:00 +35°C° 0 mm 1 mps 748 mmHg 39%
    15:00 +36°C° 0 mm 1 mps 748 mmHg 37%
    16:00 +34°C° 0 mm 1 mps 748 mmHg 43%
    17:00 +33°C° 0 mm 1 mps 748 mmHg 49%
    18:00 +32°C° 0 mm 1 mps 748 mmHg 55%
    19:00 +30°C° 0 mm 1 mps 749 mmHg 60%
    20:00 +28°C° 0 mm 1 mps 749 mmHg 66%
    21:00 +25°C° 0 mm 0 mps 750 mmHg 71%
    22:00 +24°C° 0.1 mm 0 mps 749 mmHg 73%
    23:00 +24°C° 0.1 mm 0 mps 749 mmHg 76%
    Show more